WORLDVIEW 2 DEB, 41742

Orbit data source: Space-Track

WORLDVIEW 2 DEB, 41742 is space debris in SSO originally from a launch on Thu, 08 Oct 2009 UTC launched from the Air Force Western Test Range (AFWTR). Debris objects in space refer to the collection of defunct objects orbiting the Earth. Examples of debris include non-operational satellites, rocket bodies, and fragments generated from explosions, collisions, or faulty payload assembly.

Loading next visibility...
Identifier
41742, 2009-055K
Orbit
SSO
Country
Flag of USUS
Related business
Manufacturer
Ball
Mission
Spacecraft
Bus & Motor
Unknown
Mass
Unknown
Launch date (UTC)
2009-10-08 (16 years ago)
Launch vehicle
Unknown
Launch site
Air Force Western Test Range (AFWTR)
Object type
Payload
Rocket body
Debris
Shape & HBR
Unknown shape, 0.1 m
Radar Cross Section
Small (<0.1 m²)

Expand to show TLE details & history
Last TLE update: 16 hours ago

TLE from 16 hours ago
0 WORLDVIEW 2 DEB
1 41742U 09055K   25352.68912829  .00003855  00000-0  86852-3 0  9992
2 41742  98.3579  81.2539 0007769  52.0846 308.1054 14.56928481495819
Epoch: 2025-12-18T16:32Z
TLE epoch observation values (Epoch: 2025-12-18T16:32:20.684Z)
Latitude
0.00007°
Longitude
105.62667°
Altitude
702.692 km
Speed
7.506 km/s
True Right ascension
05h 25m 00s
True Declination
0° 00' 00"
Sunlit
Object was in full shadow at epoch
Visualization orbit readout
Latitude
Unknown
Longitude
Unknown
Altitude
Unknown
Speed
Unknown
Apparent Right ascension
Unknown
Apparent Declination
Unknown
Sunlit
N/A
Visualization observer readout
Local Sidereal Time
07:48:45
Azimuth
Unknown
Elevation
Unknown
Doppler factor
Unknown
Orbital elements
Apogee altitude
705.701 km
Perigee altitude
694.703 km
Semi-major axis
7,078.339 km
Eccentricity
0.00078
Inclination
98.3579°
RAAN
81.2539°
Arg. of periapsis
52.0846°
True anomaly
308.03531°
Mean anomaly
308.1054°
Eccentric anomaly
308.07036°
Mean motion
3.64457 °/min
Orbital period
98.78 mins
BSTAR
0.00086852

Documentation

Showing up to 5 results
|